Regional Weather Roundup
Issued by NWS Northern Indiana

Home | Current Version | Previous Version | Text Only | Print | Product List | Glossary On
Versions: 1 2 3 4 5 6 7 8 9 10 11 12 13 14 15 16 17 18 19 20 21 22 23 24 25 26 27 28 29 30 31 32 33 34 35 36 37 38 39 40 41 42 43 44 45 46 47 48 49 50
000
ASUS43 KIWX 291710
RWRIWX

KIWX WEATHER ROUNDUP
NATIONAL WEATHER SERVICE NORTHERN INDIANA
100 PM EDT SUN MAR 29 2015

NOTE: "FAIR" INDICATES FEW OR NO CLOUDS BELOW 12,000 FEET WITH NO
SIGNIFICANT WEATHER AND/OR OBSTRUCTIONS TO VISIBILITY.

* THESE STATIONS ARE NOT UNDER NWS QUALITY CONTROL. THEY ALSO MAY NOT
  REPORT WEATHER SUCH AS PRECIPITATION OR FOG.

INZ001>027-291800-
NORTHERN INDIANA

CITY           SKY/WX    TMP DP  RH WIND       PRES   REMARKS
GARY*          LGT RAIN  41  10  28 S21G39    30.00F
VALPARAISO     CLOUDY    38  18  44 S21G28    30.04F
MICHIGAN CITY* CLOUDY    37  10  32 S20G33    30.01F
LAPORTE*       CLOUDY    41  18  39 S25G32    30.04F
KNOX*            N/A     39 -15   9 S20G29    30.05F
SOUTH BEND     CLOUDY    43  13  29 S23G35    30.04F
ELKHART*       PTSUNNY   41  10  28 S15G28    30.05F
GOSHEN         PTSUNNY   42  17  36 S20G30    30.07F
MONTICELLO*    CLOUDY    42  18  38 SW13G25   30.09F
LOGANSPORT*    PTSUNNY   41  21  45 S20       30.11F
ROCHESTER*     PTSUNNY   43  19  39 S16G26    30.09F
WARSAW*        PTSUNNY   41  19  42 S13G22    30.08F
ANGOLA*        SUNNY     39  21  48 S20       30.09F
FORT WAYNE     CLOUDY    41  22  46 S22G29    30.14F
HUNTINGTON*    MOSUNNY   41  13  31 S15G22    30.13F
PERU/GRISSOM   PTSUNNY   43  19  38 S21       30.10F
MARION*        MOSUNNY   41  19  41 S21G26    30.15F

$$
INZ028>050-291800-
CENTRAL INDIANA

CITY           SKY/WX    TMP DP  RH WIND       PRES   REMARKS
LAFAYETTE      PTSUNNY   42  14  32 S18G33    30.11F
KOKOMO*          N/A     41  23  48 S21       30.14F
MUNCIE*        MOSUNNY   40  18  41 S18G25    30.15F
INDIANAPOLIS   PTSUNNY   46  15  28 S16G24    30.15F

$$
MIZ043>046-050>051-056>058-064>065-071>073-077>080-291800-
SOUTHWEST LOWER MICHIGAN

CITY           SKY/WX    TMP DP  RH WIND       PRES   REMARKS
BATTLE CREEK   PTSUNNY   41  15  35 S30G38    30.03F
BENTON HARBOR  CLOUDY    42  14  32 S21G30    30.00F
COLDWATER*     PTSUNNY   40  14  34 S17G25    30.07F
HILLSDALE*     MOSUNNY   40  17  39 S14G26    30.07F
HOLLAND        CLOUDY    42  16  34 S22G30    29.98F
GRAND RAPIDS   CLOUDY    42  15  33 S17G30    29.99F
KALAMAZOO      PTSUNNY   43  15  32 S23G33    30.03F
STURGIS*       PTSUNNY   39  18  41 S22G29    30.06F
THREE RIVERS*  FAIR      41  16  37 S21G30    30.06F

$$
OHZ001>008-015>018-024>025-291800-
NORTHWEST OHIO

CITY           SKY/WX    TMP DP  RH WIND       PRES   REMARKS
WAUSEON*       FAIR      39  19  45 S21G29    30.13F
DEFIANCE       MOSUNNY   40  22  48 S15G25    30.16F
FINDLAY        MOSUNNY   41  19  41 S22G29    30.20F
TOLEDO EXPRESS MOSUNNY   40  17  39 S15G23    30.17F
TOLEDO METCALF MOSUNNY   39  16  39 S22G29    30.20F
LIMA           MOSUNNY   40  20  44 S21       30.20F

$$
AND FOR LAKE MICHIGAN COASTAL AND OPEN LAKE BUOY OBSERVATIONS

STATION/POSITION TEMP    WIND        PRES    VSBY  WAVE
                 AIR SEA DIR/SP/G                  HT/PER
                 (F)     (DEG/KT/KT) (MB)    (MI)  (FT/S)
CALUMET HARBOR    38     170/ 15/ 29 1013.8F
MICHIGAN CITY     38     160/ 25/ 31   N/A
BURNS HARBOR      39     180/ 24/ 31 1016.3S
SAINT JOSEPH      41     170/ 12/ 23 1015.6F

$$
&&


USA.gov is the U.S. government's official web portal to all federal, state and local government web resources and services.